Вернуться в каталог

SIRTF

АктивенНаукаVLEO
NORAD 27871·PAYLOAD·🇺🇸 United States

Запущен Aug 25, 2003 с Cape Canaveral Space Force Station

Loading…

Ближайшие Пролёты (ближайшие 24 часа)

TLE

УстаревшееSource: Space-Track

Эпоха: Aug 25, 2003, 05:42 UTC

1 27871U 03038A   03237.23812767 +.00001051 -33233-5 +00000-0 0  9997
2 27871 031.5001 218.6248 0000281 291.7986 199.5315 16.41232779000006

Отслеживайте SIRTF в реальном времени с AllMySat

Download on the App Store